Time,TemperatureF,DewpointF,PressureIn,WindDirection,WindDirectionDegrees,WindSpeedMPH,WindSpeedGustMPH,Humidity,HourlyPrecipIn,Conditions,Clouds,dailyrainin,SoftwareType,DateUTC
2013-10-05 00:01:00,71.9,63.9,30.04,West,276,0.0,0.0,76,0.00,,---,0.00,VWS V14.01,2013-10-05 04:01:00,
2013-10-05 00:02:00,71.8,64.2,30.04,West,275,0.0,0.0,77,0.00,,---,0.00,VWS V14.01,2013-10-05 04:02:00,
2013-10-05 00:03:00,71.8,64.2,30.04,West,276,0.0,0.0,77,0.00,,---,0.00,VWS V14.01,2013-10-05 04:03:00,
2013-10-05 00:05:00,71.7,64.1,30.04,West,277,0.0,0.0,77,0.00,,---,0.00,VWS V14.01,2013-10-05 04:05:00,
2013-10-05 00:11:00,71.6,64.0,30.04,West,276,0.0,0.0,77,0.00,,---,0.00,VWS V14.01,2013-10-05 04:11:00,
2013-10-05 00:16:00,71.6,64.0,30.04,West,277,0.0,0.0,77,0.00,,---,0.00,VWS V14.01,2013-10-05 04:16:00,
2013-10-05 00:21:00,71.7,64.1,30.04,West,276,0.0,0.0,77,0.00,,---,0.00,VWS V14.01,2013-10-05 04:21:00,
2013-10-05 00:26:00,71.5,63.9,30.04,West,275,0.0,0.0,77,0.00,,---,0.00,VWS V14.01,2013-10-05 04:26:00,
2013-10-05 00:31:00,71.3,64.1,30.04,West,276,0.0,0.0,78,0.00,,---,0.00,VWS V14.01,2013-10-05 04:31:00,
2013-10-05 00:36:00,71.1,63.9,30.04,West,275,0.0,0.0,78,0.00,,---,0.00,VWS V14.01,2013-10-05 04:36:00,
2013-10-05 00:41:00,71.1,63.9,30.04,West,276,0.0,0.0,78,0.00,,---,0.00,VWS V14.01,2013-10-05 04:41:00,
2013-10-05 00:46:00,71.1,63.9,30.04,West,276,0.0,0.0,78,0.00,,---,0.00,VWS V14.01,2013-10-05 04:46:00,
2013-10-05 00:51:00,71.2,64.0,30.04,WNW,285,0.0,0.0,78,0.00,,---,0.00,VWS V14.01,2013-10-05 04:51:00,
2013-10-05 00:57:00,71.3,64.1,30.04,WNW,285,0.0,0.0,78,0.00,,---,0.00,VWS V14.01,2013-10-05 04:57:00,
2013-10-05 01:02:00,71.2,64.0,30.05,WNW,285,0.0,0.0,78,0.00,,---,0.00,VWS V14.01,2013-10-05 05:02:00,
2013-10-05 01:07:00,71.2,64.0,30.04,WNW,287,0.0,0.0,78,0.00,,---,0.00,VWS V14.01,2013-10-05 05:07:00,
2013-10-05 01:12:00,71.3,64.1,30.04,NW,305,0.0,0.0,78,0.00,,---,0.00,VWS V14.01,2013-10-05 05:12:00,
2013-10-05 01:17:00,71.4,63.8,30.05,WNW,283,0.0,0.0,77,0.00,,---,0.00,VWS V14.01,2013-10-05 05:17:00,
2013-10-05 01:22:00,71.4,63.8,30.05,WNW,289,0.0,0.0,77,0.00,,---,0.00,VWS V14.01,2013-10-05 05:22:00,
2013-10-05 01:27:00,71.5,63.9,30.04,West,281,0.0,0.0,77,0.00,,---,0.00,VWS V14.01,2013-10-05 05:27:00,
2013-10-05 01:32:00,71.3,64.1,30.04,WNW,291,0.0,0.0,78,0.00,,---,0.00,VWS V14.01,2013-10-05 05:32:00,
2013-10-05 01:37:00,71.2,64.0,30.04,WNW,285,0.0,0.0,78,0.00,,---,0.00,VWS V14.01,2013-10-05 05:37:00,
2013-10-05 01:42:00,71.1,63.9,30.04,NW,305,0.0,1.0,78,0.00,,---,0.00,VWS V14.01,2013-10-05 05:42:00,
2013-10-05 01:47:00,71.1,63.9,30.05,WNW,287,0.0,0.0,78,0.00,,---,0.00,VWS V14.01,2013-10-05 05:47:00,
2013-10-05 01:52:00,71.1,63.9,30.05,West,269,0.0,0.0,78,0.00,,---,0.00,VWS V14.01,2013-10-05 05:52:00,
2013-10-05 01:57:00,71.1,63.9,30.05,WNW,283,0.0,0.0,78,0.00,,---,0.00,VWS V14.01,2013-10-05 05:57:00,
2013-10-05 02:03:00,71.4,64.2,30.05,WNW,284,0.0,0.0,78,0.00,,---,0.00,VWS V14.01,2013-10-05 06:03:00,
2013-10-05 02:08:00,71.3,64.1,30.05,WNW,291,0.0,0.0,78,0.00,,---,0.00,VWS V14.01,2013-10-05 06:08:00,
2013-10-05 02:13:00,71.3,64.1,30.05,WNW,291,0.0,0.0,78,0.00,,---,0.00,VWS V14.01,2013-10-05 06:13:00,
2013-10-05 02:18:00,71.1,63.9,30.05,North,1,0.0,0.0,78,0.00,,---,0.00,VWS V14.01,2013-10-05 06:18:00,
2013-10-05 02:23:00,71.0,63.8,30.04,North,1,0.0,0.0,78,0.00,,---,0.00,VWS V14.01,2013-10-05 06:23:00,
2013-10-05 02:28:00,70.9,64.1,30.04,NNW,330,0.0,0.0,79,0.00,,---,0.00,VWS V14.01,2013-10-05 06:28:00,
2013-10-05 02:33:00,70.8,64.0,30.04,NNW,330,0.0,0.0,79,0.00,,---,0.00,VWS V14.01,2013-10-05 06:33:00,
2013-10-05 02:38:00,70.6,63.8,30.05,WNW,284,0.0,0.0,79,0.00,,---,0.00,VWS V14.01,2013-10-05 06:38:00,
2013-10-05 02:44:00,70.7,63.9,30.05,WNW,298,0.0,0.0,79,0.00,,---,0.00,VWS V14.01,2013-10-05 06:44:00,
2013-10-05 02:49:00,70.7,63.9,30.05,West,281,0.0,0.0,79,0.00,,---,0.00,VWS V14.01,2013-10-05 06:49:00,
2013-10-05 02:54:00,70.7,63.9,30.05,West,281,0.0,0.0,79,0.00,,---,0.00,VWS V14.01,2013-10-05 06:54:00,
2013-10-05 02:59:00,70.7,63.9,30.05,West,278,0.0,0.0,79,0.00,,---,0.00,VWS V14.01,2013-10-05 06:59:00,
2013-10-05 03:04:00,70.6,63.8,30.05,West,280,0.0,0.0,79,0.00,,---,0.00,VWS V14.01,2013-10-05 07:04:00,
2013-10-05 03:09:00,70.5,63.7,30.04,WNW,290,0.0,3.0,79,0.00,,---,0.00,VWS V14.01,2013-10-05 07:09:00,
2013-10-05 03:14:00,70.4,63.9,30.04,West,269,0.0,2.0,80,0.00,,---,0.00,VWS V14.01,2013-10-05 07:14:00,
2013-10-05 03:19:00,70.3,63.8,30.04,West,270,0.0,0.0,80,0.00,,---,0.00,VWS V14.01,2013-10-05 07:19:00,
2013-10-05 03:24:00,70.1,63.7,30.04,West,269,0.0,0.0,80,0.00,,---,0.00,VWS V14.01,2013-10-05 07:24:00,
2013-10-05 03:29:00,70.0,63.5,30.04,WNW,284,1.0,1.0,80,0.00,,---,0.00,VWS V14.01,2013-10-05 07:29:00,
2013-10-05 03:34:00,69.9,63.5,30.05,NW,313,0.0,0.0,80,0.00,,---,0.00,VWS V14.01,2013-10-05 07:34:00,
2013-10-05 03:39:00,69.9,63.8,30.04,NW,308,1.0,1.0,81,0.00,,---,0.00,VWS V14.01,2013-10-05 07:39:00,
2013-10-05 03:44:00,69.8,63.7,30.04,West,278,0.0,1.0,81,0.00,,---,0.00,VWS V14.01,2013-10-05 07:44:00,
2013-10-05 03:49:00,69.8,63.7,30.04,West,269,0.0,1.0,81,0.00,,---,0.00,VWS V14.01,2013-10-05 07:49:00,
2013-10-05 03:54:00,69.8,63.7,30.04,West,274,0.0,0.0,81,0.00,,---,0.00,VWS V14.01,2013-10-05 07:54:00,
2013-10-05 04:00:00,69.8,63.7,30.05,West,272,0.0,0.0,81,0.00,,---,0.00,VWS V14.01,2013-10-05 08:00:00,
2013-10-05 04:05:00,69.8,63.7,30.04,WNW,287,0.0,0.0,81,0.00,,---,0.00,VWS V14.01,2013-10-05 08:05:00,
2013-10-05 04:10:00,69.7,63.6,30.04,WNW,285,0.0,0.0,81,0.00,,---,0.00,VWS V14.01,2013-10-05 08:10:00,
2013-10-05 04:15:00,69.7,63.6,30.04,WNW,288,0.0,0.0,81,0.00,,---,0.00,VWS V14.01,2013-10-05 08:15:00,
2013-10-05 04:20:00,69.6,63.5,30.04,West,275,0.0,0.0,81,0.00,,---,0.00,VWS V14.01,2013-10-05 08:20:00,
2013-10-05 04:25:00,69.4,63.3,30.04,West,278,0.0,0.0,81,0.00,,---,0.00,VWS V14.01,2013-10-05 08:25:00,
2013-10-05 04:30:00,69.4,63.7,30.04,West,277,0.0,0.0,82,0.00,,---,0.00,VWS V14.01,2013-10-05 08:30:00,
2013-10-05 04:35:00,69.3,63.6,30.05,West,278,0.0,0.0,82,0.00,,---,0.00,VWS V14.01,2013-10-05 08:35:00,
2013-10-05 04:40:00,69.2,63.5,30.05,WNW,294,0.0,0.0,82,0.00,,---,0.00,VWS V14.01,2013-10-05 08:40:00,
2013-10-05 04:45:00,69.1,63.4,30.05,WNW,285,0.0,0.0,82,0.00,,---,0.00,VWS V14.01,2013-10-05 08:45:00,
2013-10-05 04:50:00,69.1,63.4,30.05,WNW,283,0.0,0.0,82,0.00,,---,0.00,VWS V14.01,2013-10-05 08:50:00,
2013-10-05 04:55:00,69.1,63.4,30.05,WNW,283,0.0,1.0,82,0.00,,---,0.00,VWS V14.01,2013-10-05 08:55:00,
2013-10-05 05:01:00,69.1,63.4,30.05,WNW,295,0.0,0.0,82,0.00,,---,0.00,VWS V14.01,2013-10-05 09:01:00,
2013-10-05 05:06:00,69.0,63.3,30.05,West,273,0.0,0.0,82,0.00,,---,0.00,VWS V14.01,2013-10-05 09:06:00,
2013-10-05 05:11:00,69.0,63.3,30.05,West,274,0.0,0.0,82,0.00,,---,0.00,VWS V14.01,2013-10-05 09:11:00,
2013-10-05 05:16:00,68.9,63.2,30.05,WNW,298,0.0,0.0,82,0.00,,---,0.00,VWS V14.01,2013-10-05 09:16:00,
2013-10-05 05:21:00,69.0,63.3,30.05,WNW,290,0.0,0.0,82,0.00,,---,0.00,VWS V14.01,2013-10-05 09:21:00,
2013-10-05 05:26:00,69.0,63.3,30.05,WNW,290,0.0,1.0,82,0.00,,---,0.00,VWS V14.01,2013-10-05 09:26:00,
2013-10-05 05:31:00,69.1,63.4,30.05,West,263,0.0,2.0,82,0.00,,---,0.00,VWS V14.01,2013-10-05 09:31:00,
2013-10-05 05:36:00,69.2,63.5,30.05,West,271,0.0,0.0,82,0.00,,---,0.00,VWS V14.01,2013-10-05 09:36:00,
2013-10-05 05:41:00,69.1,63.4,30.05,West,281,0.0,1.0,82,0.00,,---,0.00,VWS V14.01,2013-10-05 09:41:00,
2013-10-05 05:46:00,69.1,63.4,30.06,West,277,0.0,0.0,82,0.00,,---,0.00,VWS V14.01,2013-10-05 09:46:00,
2013-10-05 05:52:00,69.0,63.3,30.06,West,276,0.0,0.0,82,0.00,,---,0.00,VWS V14.01,2013-10-05 09:52:00,
2013-10-05 05:57:00,68.9,63.2,30.06,WNW,297,0.0,0.0,82,0.00,,---,0.00,VWS V14.01,2013-10-05 09:57:00,
2013-10-05 06:02:00,68.8,63.4,30.06,WNW,300,0.0,1.0,83,0.00,,---,0.00,VWS V14.01,2013-10-05 10:02:00,
2013-10-05 06:07:00,68.8,63.4,30.06,West,276,0.0,4.0,83,0.00,,---,0.00,VWS V14.01,2013-10-05 10:07:00,
2013-10-05 06:12:00,68.7,63.3,30.06,WNW,290,0.0,0.0,83,0.00,,---,0.00,VWS V14.01,2013-10-05 10:12:00,
2013-10-05 06:17:00,68.6,63.2,30.06,West,278,0.0,1.0,83,0.00,,---,0.00,VWS V14.01,2013-10-05 10:17:00,
2013-10-05 06:22:00,68.5,63.1,30.06,WNW,287,0.0,1.0,83,0.00,,---,0.00,VWS V14.01,2013-10-05 10:22:00,
2013-10-05 06:27:00,68.6,63.2,30.06,WNW,285,0.0,1.0,83,0.00,,---,0.00,VWS V14.01,2013-10-05 10:27:00,
2013-10-05 06:32:00,68.5,63.1,30.06,West,275,0.0,0.0,83,0.00,,---,0.00,VWS V14.01,2013-10-05 10:32:00,
2013-10-05 06:37:00,68.5,63.1,30.06,West,274,0.0,0.0,83,0.00,,---,0.00,VWS V14.01,2013-10-05 10:37:00,
2013-10-05 06:42:00,68.4,63.0,30.06,West,274,0.0,0.0,83,0.00,,---,0.00,VWS V14.01,2013-10-05 10:42:00,
2013-10-05 06:47:00,68.4,63.0,30.06,WNW,290,1.0,1.0,83,0.00,,---,0.00,VWS V14.01,2013-10-05 10:47:00,
2013-10-05 06:52:00,68.4,63.0,30.07,West,264,0.0,0.0,83,0.00,,---,0.00,VWS V14.01,2013-10-05 10:52:00,
2013-10-05 06:58:00,68.4,63.0,30.06,WNW,284,0.0,0.0,83,0.00,,---,0.00,VWS V14.01,2013-10-05 10:58:00,
2013-10-05 07:03:00,68.3,62.9,30.06,WNW,284,0.0,1.0,83,0.00,,---,0.00,VWS V14.01,2013-10-05 11:03:00,
2013-10-05 07:08:00,68.1,63.1,30.06,WNW,285,0.0,0.0,84,0.00,,---,0.00,VWS V14.01,2013-10-05 11:08:00,
2013-10-05 07:13:00,68.1,63.1,30.07,West,279,0.0,0.0,84,0.00,,---,0.00,VWS V14.01,2013-10-05 11:13:00,
2013-10-05 07:18:00,68.1,62.8,30.07,West,281,0.0,0.0,83,0.00,,---,0.00,VWS V14.01,2013-10-05 11:18:00,
2013-10-05 07:23:00,68.3,62.9,30.07,WNW,294,0.0,0.0,83,0.00,,---,0.00,VWS V14.01,2013-10-05 11:23:00,
2013-10-05 07:28:00,68.4,63.0,30.07,WNW,296,0.0,0.0,83,0.00,,---,0.00,VWS V14.01,2013-10-05 11:28:00,
2013-10-05 07:34:00,68.4,63.0,30.07,WNW,291,0.0,0.0,83,0.00,,---,0.00,VWS V14.01,2013-10-05 11:34:00,
2013-10-05 07:39:00,68.4,63.0,30.07,NW,308,0.0,0.0,83,0.00,,---,0.00,VWS V14.01,2013-10-05 11:39:00,
2013-10-05 07:44:00,68.3,62.9,30.07,West,281,0.0,0.0,83,0.00,,---,0.00,VWS V14.01,2013-10-05 11:44:00,
2013-10-05 07:49:00,68.4,63.4,30.07,WNW,300,0.0,0.0,84,0.00,,---,0.00,VWS V14.01,2013-10-05 11:49:00,
2013-10-05 07:54:00,68.4,63.4,30.07,WNW,283,0.0,0.0,84,0.00,,---,0.00,VWS V14.01,2013-10-05 11:54:00,
2013-10-05 07:59:00,68.5,63.1,30.07,WNW,284,0.0,0.0,83,0.00,,---,0.00,VWS V14.01,2013-10-05 11:59:00,
2013-10-05 08:04:00,68.6,63.2,30.07,WNW,292,0.0,2.0,83,0.00,,---,0.00,VWS V14.01,2013-10-05 12:04:00,
2013-10-05 08:09:00,68.7,63.3,30.07,WNW,285,0.0,0.0,83,0.00,,---,0.00,VWS V14.01,2013-10-05 12:09:00,
2013-10-05 08:14:00,68.9,63.5,30.07,WNW,298,0.0,0.0,83,0.00,,---,0.00,VWS V14.01,2013-10-05 12:14:00,
2013-10-05 08:19:00,68.9,63.5,30.07,WNW,298,0.0,0.0,83,0.00,,---,0.00,VWS V14.01,2013-10-05 12:19:00,
2013-10-05 08:25:00,68.9,63.9,30.07,WNW,298,0.0,0.0,84,0.00,,---,0.00,VWS V14.01,2013-10-05 12:25:00,
2013-10-05 08:30:00,68.9,63.9,30.07,NNE,19,0.0,0.0,84,0.00,,---,0.00,VWS V14.01,2013-10-05 12:30:00,
2013-10-05 08:35:00,68.9,64.2,30.07,North,356,0.0,0.0,85,0.00,,---,0.00,VWS V14.01,2013-10-05 12:35:00,
2013-10-05 08:40:00,69.0,64.0,30.07,WNW,285,0.0,0.0,84,0.00,,---,0.00,VWS V14.01,2013-10-05 12:40:00,
2013-10-05 08:45:00,69.3,63.9,30.07,WNW,284,0.0,0.0,83,0.00,,---,0.00,VWS V14.01,2013-10-05 12:45:00,
2013-10-05 08:50:00,69.6,63.9,30.07,WNW,302,0.0,0.0,82,0.00,,---,0.00,VWS V14.01,2013-10-05 12:50:00,
2013-10-05 08:55:00,69.8,64.4,30.07,South,190,0.0,0.0,83,0.00,,---,0.00,VWS V14.01,2013-10-05 12:55:00,
2013-10-05 09:00:00,70.1,64.7,30.08,South,190,0.0,0.0,83,0.00,,---,0.00,VWS V14.01,2013-10-05 13:00:00,
2013-10-05 09:05:00,70.5,64.8,30.08,South,190,0.0,0.0,82,0.00,,---,0.00,VWS V14.01,2013-10-05 13:05:00,
2013-10-05 09:10:00,71.0,65.2,30.08,South,169,0.0,0.0,82,0.00,,---,0.00,VWS V14.01,2013-10-05 13:10:00,
2013-10-05 09:15:00,71.3,65.5,30.08,South,169,0.0,0.0,82,0.00,,---,0.00,VWS V14.01,2013-10-05 13:15:00,
2013-10-05 09:21:00,71.5,65.7,30.08,South,169,0.0,0.0,82,0.00,,---,0.00,VWS V14.01,2013-10-05 13:21:00,
2013-10-05 09:26:00,71.7,65.9,30.08,South,169,0.0,0.0,82,0.00,,---,0.00,VWS V14.01,2013-10-05 13:26:00,
2013-10-05 09:31:00,72.2,66.4,30.08,South,169,0.0,0.0,82,0.00,,---,0.00,VWS V14.01,2013-10-05 13:31:00,
2013-10-05 09:36:00,72.7,66.2,30.08,South,174,0.0,0.0,80,0.00,,---,0.00,VWS V14.01,2013-10-05 13:36:00,
2013-10-05 09:41:00,73.1,66.2,30.08,South,173,0.0,0.0,79,0.00,,---,0.00,VWS V14.01,2013-10-05 13:41:00,
2013-10-05 09:46:00,73.5,66.2,30.08,NE,50,0.0,2.0,78,0.00,,---,0.00,VWS V14.01,2013-10-05 13:46:00,
2013-10-05 09:51:00,73.5,65.9,30.08,NW,314,0.0,0.0,77,0.00,,---,0.00,VWS V14.01,2013-10-05 13:51:00,
2013-10-05 09:57:00,73.8,66.2,30.08,ENE,60,0.0,0.0,77,0.00,,---,0.00,VWS V14.01,2013-10-05 13:57:00,
2013-10-05 10:02:00,74.0,66.0,30.08,WNW,288,0.0,0.0,76,0.00,,---,0.00,VWS V14.01,2013-10-05 14:02:00,
2013-10-05 10:07:00,73.9,65.5,30.08,NNW,332,0.0,0.0,75,0.00,,---,0.00,VWS V14.01,2013-10-05 14:07:00,
2013-10-05 10:12:00,74.1,66.1,30.08,SE,141,0.0,1.0,76,0.00,,---,0.00,VWS V14.01,2013-10-05 14:12:00,
2013-10-05 10:17:00,74.7,66.3,30.08,NNW,333,1.0,1.0,75,0.00,,---,0.00,VWS V14.01,2013-10-05 14:17:00,
2013-10-05 10:22:00,74.8,66.7,30.08,NW,316,0.0,0.0,76,0.00,,---,0.00,VWS V14.01,2013-10-05 14:22:00,
2013-10-05 10:27:00,75.3,66.4,30.08,ENE,72,0.0,2.0,74,0.00,,---,0.00,VWS V14.01,2013-10-05 14:27:00,
2013-10-05 10:32:00,75.5,66.6,30.08,NW,315,0.0,0.0,74,0.00,,---,0.00,VWS V14.01,2013-10-05 14:32:00,
2013-10-05 10:37:00,75.7,66.4,30.08,NW,315,0.0,0.0,73,0.00,,---,0.00,VWS V14.01,2013-10-05 14:37:00,
2013-10-05 10:42:00,75.9,66.2,30.08,NW,311,0.0,2.0,72,0.00,,---,0.00,VWS V14.01,2013-10-05 14:42:00,
2013-10-05 10:47:00,76.0,66.3,30.08,WSW,256,0.0,0.0,72,0.00,,---,0.00,VWS V14.01,2013-10-05 14:47:00,
2013-10-05 10:52:00,76.4,67.1,30.08,NW,304,0.0,0.0,73,0.00,,---,0.00,VWS V14.01,2013-10-05 14:52:00,
2013-10-05 10:57:00,77.1,67.0,30.08,NW,304,0.0,1.0,71,0.00,,---,0.00,VWS V14.01,2013-10-05 14:57:00,
2013-10-05 11:03:00,77.5,66.9,30.08,West,266,0.0,0.0,70,0.00,,---,0.00,VWS V14.01,2013-10-05 15:03:00,
2013-10-05 11:08:00,78.0,67.4,30.08,West,264,0.0,0.0,70,0.00,,---,0.00,VWS V14.01,2013-10-05 15:08:00,
2013-10-05 11:13:00,78.4,67.4,30.08,West,271,0.0,0.0,69,0.00,,---,0.00,VWS V14.01,2013-10-05 15:13:00,
2013-10-05 11:18:00,79.0,67.6,30.08,West,281,0.0,0.0,68,0.00,,---,0.00,VWS V14.01,2013-10-05 15:18:00,
2013-10-05 11:23:00,79.0,68.0,30.08,ESE,104,0.0,0.0,69,0.00,,---,0.00,VWS V14.01,2013-10-05 15:23:00,
2013-10-05 11:28:00,79.3,67.4,30.08,ESE,103,0.0,0.0,67,0.00,,---,0.00,VWS V14.01,2013-10-05 15:28:00,
2013-10-05 11:33:00,79.1,66.8,30.07,WSW,248,0.0,1.0,66,0.00,,---,0.00,VWS V14.01,2013-10-05 15:33:00,
2013-10-05 11:38:00,79.3,67.4,30.08,SE,129,0.0,0.0,67,0.00,,---,0.00,VWS V14.01,2013-10-05 15:38:00,
2013-10-05 11:43:00,79.4,67.5,30.07,WSW,257,0.0,0.0,67,0.00,,---,0.00,VWS V14.01,2013-10-05 15:43:00,
2013-10-05 11:48:00,79.6,67.2,30.07,SW,236,0.0,1.0,66,0.00,,---,0.00,VWS V14.01,2013-10-05 15:48:00,
2013-10-05 11:53:00,79.4,67.1,30.07,NW,309,0.0,0.0,66,0.00,,---,0.00,VWS V14.01,2013-10-05 15:53:00,
2013-10-05 11:59:00,80.1,68.2,30.07,NE,36,0.0,0.0,67,0.00,,---,0.00,VWS V14.01,2013-10-05 15:59:00,
2013-10-05 12:04:00,80.5,67.7,30.07,NW,321,1.0,1.0,65,0.00,,---,0.00,VWS V14.01,2013-10-05 16:04:00,
2013-10-05 12:09:00,80.6,67.3,30.07,North,358,0.0,0.0,64,0.00,,---,0.00,VWS V14.01,2013-10-05 16:09:00,
2013-10-05 12:14:00,81.1,67.8,30.07,NNE,16,0.0,0.0,64,0.00,,---,0.00,VWS V14.01,2013-10-05 16:14:00,
2013-10-05 12:19:00,81.4,67.1,30.07,WNW,302,0.0,0.0,62,0.00,,---,0.00,VWS V14.01,2013-10-05 16:19:00,
2013-10-05 12:24:00,81.9,68.1,30.07,WNW,295,0.0,0.0,63,0.00,,---,0.00,VWS V14.01,2013-10-05 16:24:00,
2013-10-05 12:29:00,82.3,68.0,30.06,NW,325,0.0,0.0,62,0.00,,---,0.00,VWS V14.01,2013-10-05 16:29:00,
2013-10-05 12:34:00,82.7,68.4,30.06,East,95,0.0,0.0,62,0.00,,---,0.00,VWS V14.01,2013-10-05 16:34:00,
2013-10-05 12:39:00,82.8,68.0,30.06,NNE,27,0.0,0.0,61,0.00,,---,0.00,VWS V14.01,2013-10-05 16:39:00,
2013-10-05 12:44:00,82.9,68.1,30.06,NNW,344,0.0,0.0,61,0.00,,---,0.00,VWS V14.01,2013-10-05 16:44:00,
2013-10-05 12:49:00,83.3,68.0,30.05,North,1,0.0,0.0,60,0.00,,---,0.00,VWS V14.01,2013-10-05 16:49:00,
2013-10-05 12:54:00,83.2,67.4,30.05,SSW,208,0.0,0.0,59,0.00,,---,0.00,VWS V14.01,2013-10-05 16:54:00,
2013-10-05 12:59:00,82.9,67.6,30.05,SW,236,0.0,0.0,60,0.00,,---,0.00,VWS V14.01,2013-10-05 16:59:00,
2013-10-05 13:04:00,82.5,67.2,30.05,West,262,0.0,0.0,60,0.00,,---,0.00,VWS V14.01,2013-10-05 17:04:00,
2013-10-05 13:09:00,81.8,67.1,30.05,WNW,295,0.0,0.0,61,0.00,,---,0.00,VWS V14.01,2013-10-05 17:09:00,
2013-10-05 13:15:00,81.5,67.2,30.05,WNW,297,0.0,0.0,62,0.00,,---,0.00,VWS V14.01,2013-10-05 17:15:00,
2013-10-05 13:20:00,81.4,67.1,30.04,South,172,1.0,1.0,62,0.00,,---,0.00,VWS V14.01,2013-10-05 17:20:00,
2013-10-05 13:25:00,81.8,67.1,30.04,SE,139,0.0,0.0,61,0.00,,---,0.00,VWS V14.01,2013-10-05 17:25:00,
2013-10-05 13:30:00,81.9,67.1,30.04,SE,140,0.0,0.0,61,0.00,,---,0.00,VWS V14.01,2013-10-05 17:30:00,
2013-10-05 13:35:00,82.1,66.8,30.03,East,98,0.0,0.0,60,0.00,,---,0.00,VWS V14.01,2013-10-05 17:35:00,
2013-10-05 13:40:00,82.1,67.3,30.03,ESE,112,0.0,0.0,61,0.00,,---,0.00,VWS V14.01,2013-10-05 17:40:00,
2013-10-05 13:45:00,82.0,66.3,30.03,WNW,293,0.0,0.0,59,0.00,,---,0.00,VWS V14.01,2013-10-05 17:45:00,
2013-10-05 13:50:00,81.9,65.2,30.02,SE,139,0.0,0.0,57,0.00,,---,0.00,VWS V14.01,2013-10-05 17:50:00,
2013-10-05 13:55:00,81.9,66.2,30.02,SSE,160,0.0,0.0,59,0.00,,---,0.00,VWS V14.01,2013-10-05 17:55:00,
2013-10-05 14:00:00,82.0,65.8,30.02,NW,311,0.0,1.0,58,0.00,,---,0.00,VWS V14.01,2013-10-05 18:00:00,
2013-10-05 14:05:00,82.0,65.8,30.02,NW,324,0.0,0.0,58,0.00,,---,0.00,VWS V14.01,2013-10-05 18:05:00,
2013-10-05 14:11:00,82.0,65.3,30.01,NW,315,1.0,1.0,57,0.00,,---,0.00,VWS V14.01,2013-10-05 18:11:00,
2013-10-05 14:16:00,82.0,65.8,30.01,NNW,332,0.0,0.0,58,0.00,,---,0.00,VWS V14.01,2013-10-05 18:16:00,
2013-10-05 14:21:00,82.3,66.1,30.01,NW,325,0.0,0.0,58,0.00,,---,0.00,VWS V14.01,2013-10-05 18:21:00,
2013-10-05 14:26:00,82.2,66.5,30.01,NNW,327,0.0,0.0,59,0.00,,---,0.00,VWS V14.01,2013-10-05 18:26:00,
2013-10-05 14:31:00,82.4,66.2,30.01,NW,325,0.0,1.0,58,0.00,,---,0.00,VWS V14.01,2013-10-05 18:31:00,
2013-10-05 14:36:00,82.5,65.8,30.01,WNW,296,0.0,0.0,57,0.00,,---,0.00,VWS V14.01,2013-10-05 18:36:00,
2013-10-05 14:41:00,82.3,65.6,30.00,NW,316,0.0,0.0,57,0.00,,---,0.00,VWS V14.01,2013-10-05 18:41:00,
2013-10-05 14:46:00,81.9,65.7,30.00,ENE,77,0.0,0.0,58,0.00,,---,0.00,VWS V14.01,2013-10-05 18:46:00,
2013-10-05 14:51:00,81.7,66.0,30.01,West,276,0.0,0.0,59,0.00,,---,0.00,VWS V14.01,2013-10-05 18:51:00,
2013-10-05 14:57:00,81.6,65.9,30.01,SW,214,0.0,0.0,59,0.00,,---,0.00,VWS V14.01,2013-10-05 18:57:00,
2013-10-05 15:02:00,81.6,65.9,30.01,SE,145,0.0,0.0,59,0.00,,---,0.00,VWS V14.01,2013-10-05 19:02:00,
2013-10-05 15:07:00,81.7,66.5,30.00,SSW,198,0.0,0.0,60,0.00,,---,0.00,VWS V14.01,2013-10-05 19:07:00,
2013-10-05 15:12:00,81.9,66.2,30.00,WNW,295,0.0,0.0,59,0.00,,---,0.00,VWS V14.01,2013-10-05 19:12:00,
2013-10-05 15:17:00,82.0,66.3,30.00,SSE,148,0.0,0.0,59,0.00,,---,0.00,VWS V14.01,2013-10-05 19:17:00,
2013-10-05 15:22:00,81.8,66.6,30.00,SSW,204,0.0,0.0,60,0.00,,---,0.00,VWS V14.01,2013-10-05 19:22:00,
2013-10-05 15:27:00,81.7,66.5,30.00,SSE,165,0.0,0.0,60,0.00,,---,0.00,VWS V14.01,2013-10-05 19:27:00,
2013-10-05 15:32:00,81.5,66.3,30.00,ESE,120,0.0,0.0,60,0.00,,---,0.00,VWS V14.01,2013-10-05 19:32:00,
2013-10-05 15:37:00,81.3,65.6,30.00,SE,134,0.0,0.0,59,0.00,,---,0.00,VWS V14.01,2013-10-05 19:37:00,
2013-10-05 15:43:00,81.4,65.2,30.00,WNW,283,0.0,0.0,58,0.00,,---,0.00,VWS V14.01,2013-10-05 19:43:00,
2013-10-05 15:48:00,81.5,65.8,30.00,South,177,0.0,0.0,59,0.00,,---,0.00,VWS V14.01,2013-10-05 19:48:00,
2013-10-05 15:53:00,81.4,66.2,29.99,SE,132,0.0,0.0,60,0.00,,---,0.00,VWS V14.01,2013-10-05 19:53:00,
2013-10-05 15:58:00,81.2,65.5,29.99,SE,130,0.0,0.0,59,0.00,,---,0.00,VWS V14.01,2013-10-05 19:58:00,
2013-10-05 16:03:00,81.0,66.3,29.99,SSW,204,0.0,0.0,61,0.00,,---,0.00,VWS V14.01,2013-10-05 20:03:00,
2013-10-05 16:08:00,80.8,66.1,29.99,SSE,154,0.0,0.0,61,0.00,,---,0.00,VWS V14.01,2013-10-05 20:08:00,
2013-10-05 16:13:00,80.7,66.0,29.99,South,189,0.0,0.0,61,0.00,,---,0.00,VWS V14.01,2013-10-05 20:13:00,
2013-10-05 16:18:00,80.5,65.8,29.99,NE,53,0.0,0.0,61,0.00,,---,0.00,VWS V14.01,2013-10-05 20:18:00,
2013-10-05 16:23:00,80.4,65.7,29.99,North,351,0.0,0.0,61,0.00,,---,0.00,VWS V14.01,2013-10-05 20:23:00,
2013-10-05 16:28:00,80.3,65.2,29.99,NW,325,0.0,0.0,60,0.00,,---,0.00,VWS V14.01,2013-10-05 20:28:00,
2013-10-05 16:33:00,80.2,66.0,29.99,NNE,13,0.0,0.0,62,0.00,,---,0.00,VWS V14.01,2013-10-05 20:33:00,
2013-10-05 16:39:00,79.8,65.6,29.99,SSW,210,0.0,0.0,62,0.00,,---,0.00,VWS V14.01,2013-10-05 20:39:00,
2013-10-05 16:44:00,79.7,65.5,29.99,SSE,152,0.0,0.0,62,0.00,,---,0.00,VWS V14.01,2013-10-05 20:44:00,
2013-10-05 16:49:00,79.7,66.0,29.99,SSE,156,0.0,0.0,63,0.00,,---,0.00,VWS V14.01,2013-10-05 20:49:00,
2013-10-05 16:54:00,79.7,66.0,29.99,West,259,0.0,0.0,63,0.00,,---,0.00,VWS V14.01,2013-10-05 20:54:00,
2013-10-05 16:59:00,79.8,66.6,29.99,SE,135,0.0,0.0,64,0.00,,---,0.00,VWS V14.01,2013-10-05 20:59:00,
2013-10-05 17:04:00,79.7,66.5,29.99,South,179,0.0,0.0,64,0.00,,---,0.00,VWS V14.01,2013-10-05 21:04:00,
2013-10-05 17:09:00,79.7,66.5,29.98,SE,139,0.0,0.0,64,0.00,,---,0.00,VWS V14.01,2013-10-05 21:09:00,
2013-10-05 17:15:00,79.6,66.4,29.98,SSW,201,0.0,0.0,64,0.00,,---,0.00,VWS V14.01,2013-10-05 21:15:00,
2013-10-05 17:20:00,79.4,65.7,29.98,North,357,0.0,0.0,63,0.00,,---,0.00,VWS V14.01,2013-10-05 21:20:00,
2013-10-05 17:25:00,79.4,66.6,29.99,North,356,0.0,0.0,65,0.00,,---,0.00,VWS V14.01,2013-10-05 21:25:00,
2013-10-05 17:30:00,79.2,66.4,29.99,North,355,0.0,0.0,65,0.00,,---,0.00,VWS V14.01,2013-10-05 21:30:00,
2013-10-05 17:35:00,78.8,66.5,29.99,WNW,291,0.0,0.0,66,0.00,,---,0.00,VWS V14.01,2013-10-05 21:35:00,
2013-10-05 17:40:00,78.5,66.6,29.99,WNW,290,0.0,0.0,67,0.00,,---,0.00,VWS V14.01,2013-10-05 21:40:00,
2013-10-05 17:45:00,78.0,66.6,29.99,WNW,290,0.0,0.0,68,0.00,,---,0.00,VWS V14.01,2013-10-05 21:45:00,
2013-10-05 17:51:00,77.6,66.6,29.99,WNW,290,0.0,0.0,69,0.00,,---,0.00,VWS V14.01,2013-10-05 21:51:00,
2013-10-05 17:56:00,77.2,66.7,29.99,WNW,290,0.0,0.0,70,0.00,,---,0.00,VWS V14.01,2013-10-05 21:56:00,
2013-10-05 18:01:00,76.9,66.4,29.99,WNW,291,0.0,0.0,70,0.00,,---,0.00,VWS V14.01,2013-10-05 22:01:00,
2013-10-05 18:06:00,76.6,66.1,29.99,WNW,290,0.0,0.0,70,0.00,,---,0.00,VWS V14.01,2013-10-05 22:06:00,
2013-10-05 18:11:00,76.4,65.9,29.99,WNW,290,0.0,0.0,70,0.00,,---,0.00,VWS V14.01,2013-10-05 22:11:00,
2013-10-05 18:16:00,76.2,65.7,29.99,WNW,291,0.0,0.0,70,0.00,,---,0.00,VWS V14.01,2013-10-05 22:16:00,
2013-10-05 18:21:00,76.0,65.9,29.99,WNW,291,0.0,0.0,71,0.00,,---,0.00,VWS V14.01,2013-10-05 22:21:00,
2013-10-05 18:26:00,75.8,65.7,29.99,WNW,290,0.0,0.0,71,0.00,,---,0.00,VWS V14.01,2013-10-05 22:26:00,
2013-10-05 18:31:00,75.7,65.6,29.99,WNW,290,0.0,0.0,71,0.00,,---,0.00,VWS V14.01,2013-10-05 22:31:00,
2013-10-05 18:36:00,75.6,65.5,29.98,WNW,291,0.0,0.0,71,0.00,,---,0.00,VWS V14.01,2013-10-05 22:36:00,
2013-10-05 18:41:00,75.4,65.3,29.98,WNW,290,0.0,0.0,71,0.00,,---,0.00,VWS V14.01,2013-10-05 22:41:00,
2013-10-05 18:46:00,75.3,65.3,29.98,WNW,291,0.0,0.0,71,0.00,,---,0.00,VWS V14.01,2013-10-05 22:46:00,
2013-10-05 18:52:00,75.1,65.1,29.98,WNW,291,0.0,0.0,71,0.00,,---,0.00,VWS V14.01,2013-10-05 22:52:00,
2013-10-05 18:57:00,75.0,65.0,29.98,WNW,290,0.0,0.0,71,0.00,,---,0.00,VWS V14.01,2013-10-05 22:57:00,
2013-10-05 19:02:00,74.9,64.9,29.98,WNW,290,0.0,0.0,71,0.00,,---,0.00,VWS V14.01,2013-10-05 23:02:00,
2013-10-05 19:07:00,74.8,65.2,29.98,WNW,291,0.0,0.0,72,0.00,,---,0.00,VWS V14.01,2013-10-05 23:07:00,
2013-10-05 19:12:00,74.7,64.7,29.98,WNW,291,0.0,0.0,71,0.00,,---,0.00,VWS V14.01,2013-10-05 23:12:00,
2013-10-05 19:17:00,74.6,65.0,29.98,WNW,291,0.0,0.0,72,0.00,,---,0.00,VWS V14.01,2013-10-05 23:17:00,
2013-10-05 19:22:00,74.7,64.7,29.98,WNW,290,0.0,0.0,71,0.00,,---,0.00,VWS V14.01,2013-10-05 23:22:00,
2013-10-05 19:27:00,74.7,64.7,29.98,WNW,290,0.0,0.0,71,0.00,,---,0.00,VWS V14.01,2013-10-05 23:27:00,
2013-10-05 19:33:00,74.6,64.6,29.98,WNW,289,0.0,0.0,71,0.00,,---,0.00,VWS V14.01,2013-10-05 23:33:00,
2013-10-05 19:38:00,74.5,64.9,29.98,WNW,289,0.0,0.0,72,0.00,,---,0.00,VWS V14.01,2013-10-05 23:38:00,
2013-10-05 19:43:00,74.5,64.9,29.98,WNW,290,0.0,0.0,72,0.00,,---,0.00,VWS V14.01,2013-10-05 23:43:00,
2013-10-05 19:48:00,74.4,64.8,29.98,WNW,288,0.0,0.0,72,0.00,,---,0.00,VWS V14.01,2013-10-05 23:48:00,
2013-10-05 19:53:00,74.3,64.7,29.98,WNW,288,0.0,0.0,72,0.00,,---,0.00,VWS V14.01,2013-10-05 23:53:00,
2013-10-05 19:58:00,74.2,64.6,29.98,WNW,288,0.0,0.0,72,0.00,,---,0.00,VWS V14.01,2013-10-05 23:58:00,
2013-10-05 20:03:00,74.2,64.6,29.98,ESE,105,0.0,0.0,72,0.00,,---,0.00,VWS V14.01,2013-10-06 00:03:00,
2013-10-05 20:08:00,74.2,64.6,29.98,ESE,107,0.0,0.0,72,0.00,,---,0.00,VWS V14.01,2013-10-06 00:08:00,
2013-10-05 20:13:00,74.2,64.6,29.98,ESE,107,0.0,0.0,72,0.00,,---,0.00,VWS V14.01,2013-10-06 00:13:00,
2013-10-05 20:18:00,74.1,64.5,29.98,ENE,78,0.0,0.0,72,0.00,,---,0.00,VWS V14.01,2013-10-06 00:18:00,
2013-10-05 20:24:00,74.1,64.5,29.98,East,91,0.0,0.0,72,0.00,,---,0.00,VWS V14.01,2013-10-06 00:24:00,
2013-10-05 20:29:00,74.1,64.5,29.99,NE,42,0.0,0.0,72,0.00,,---,0.00,VWS V14.01,2013-10-06 00:29:00,
2013-10-05 20:34:00,74.0,64.4,29.99,NE,42,0.0,0.0,72,0.00,,---,0.00,VWS V14.01,2013-10-06 00:34:00,
2013-10-05 20:39:00,73.9,64.3,29.99,NE,43,0.0,0.0,72,0.00,,---,0.00,VWS V14.01,2013-10-06 00:39:00,
2013-10-05 20:44:00,73.9,64.3,29.99,NNE,18,0.0,0.0,72,0.00,,---,0.00,VWS V14.01,2013-10-06 00:44:00,
2013-10-05 20:49:00,74.1,64.5,29.99,SE,130,0.0,2.0,72,0.00,,---,0.00,VWS V14.01,2013-10-06 00:49:00,
2013-10-05 20:54:00,74.4,64.8,29.99,SSE,149,0.0,0.0,72,0.00,,---,0.00,VWS V14.01,2013-10-06 00:54:00,
2013-10-05 20:59:00,74.6,64.6,29.99,South,179,0.0,0.0,71,0.00,,---,0.00,VWS V14.01,2013-10-06 00:59:00,
2013-10-05 21:05:00,74.5,64.5,29.99,NNE,19,0.0,0.0,71,0.00,,---,0.00,VWS V14.01,2013-10-06 01:05:00,
2013-10-05 21:10:00,74.8,64.8,30.00,NNW,328,0.0,0.0,71,0.00,,---,0.00,VWS V14.01,2013-10-06 01:10:00,
2013-10-05 21:15:00,74.8,64.8,30.00,NNW,328,0.0,0.0,71,0.00,,---,0.00,VWS V14.01,2013-10-06 01:15:00,
2013-10-05 21:20:00,74.9,64.5,30.00,East,79,0.0,0.0,70,0.00,,---,0.00,VWS V14.01,2013-10-06 01:20:00,
2013-10-05 21:25:00,74.9,64.9,30.00,East,79,0.0,0.0,71,0.00,,---,0.00,VWS V14.01,2013-10-06 01:25:00,
2013-10-05 21:30:00,74.7,64.7,30.00,East,79,0.0,0.0,71,0.00,,---,0.00,VWS V14.01,2013-10-06 01:30:00,
2013-10-05 21:35:00,74.4,64.8,30.00,SSW,211,0.0,0.0,72,0.00,,---,0.00,VWS V14.01,2013-10-06 01:35:00,
2013-10-05 21:40:00,74.2,65.0,30.00,SSW,211,0.0,0.0,73,0.00,,---,0.00,VWS V14.01,2013-10-06 01:40:00,
2013-10-05 21:45:00,74.0,64.8,30.01,SSW,211,0.0,0.0,73,0.00,,---,0.00,VWS V14.01,2013-10-06 01:45:00,
2013-10-05 21:50:00,73.8,65.0,30.01,SSW,211,0.0,0.0,74,0.00,,---,0.00,VWS V14.01,2013-10-06 01:50:00,
2013-10-05 21:55:00,73.7,64.9,30.00,NW,322,0.0,0.0,74,0.00,,---,0.00,VWS V14.01,2013-10-06 01:55:00,
2013-10-05 22:00:00,73.6,64.8,30.01,WNW,289,0.0,0.0,74,0.00,,---,0.00,VWS V14.01,2013-10-06 02:00:00,
2013-10-05 22:05:00,73.7,64.9,30.01,NNW,340,0.0,0.0,74,0.00,,---,0.00,VWS V14.01,2013-10-06 02:05:00,
2013-10-05 22:10:00,73.9,65.1,30.01,North,350,0.0,1.0,74,0.00,,---,0.00,VWS V14.01,2013-10-06 02:10:00,
2013-10-05 22:15:00,74.4,65.2,30.01,NE,35,0.0,0.0,73,0.00,,---,0.00,VWS V14.01,2013-10-06 02:15:00,
2013-10-05 22:20:00,74.7,65.5,30.01,NE,35,0.0,0.0,73,0.00,,---,0.00,VWS V14.01,2013-10-06 02:20:00,
2013-10-05 22:25:00,74.5,65.3,30.00,NE,36,0.0,0.0,73,0.00,,---,0.00,VWS V14.01,2013-10-06 02:25:00,
2013-10-05 22:30:00,74.4,65.2,30.00,NE,35,0.0,0.0,73,0.00,,---,0.00,VWS V14.01,2013-10-06 02:30:00,
2013-10-05 22:35:00,74.3,65.5,30.01,NNW,334,0.0,0.0,74,0.00,,---,0.00,VWS V14.01,2013-10-06 02:35:00,
2013-10-05 22:40:00,74.2,65.4,30.00,NNW,334,0.0,0.0,74,0.00,,---,0.00,VWS V14.01,2013-10-06 02:40:00,
2013-10-05 22:45:00,74.1,65.3,30.00,NNW,335,0.0,0.0,74,0.00,,---,0.00,VWS V14.01,2013-10-06 02:45:00,
2013-10-05 22:50:00,74.0,65.2,30.00,NNW,334,0.0,0.0,74,0.00,,---,0.00,VWS V14.01,2013-10-06 02:50:00,
2013-10-05 22:55:00,73.9,65.1,30.00,NNW,335,0.0,0.0,74,0.00,,---,0.00,VWS V14.01,2013-10-06 02:55:00,
2013-10-05 23:00:00,73.8,65.0,30.00,NNW,334,0.0,0.0,74,0.00,,---,0.00,VWS V14.01,2013-10-06 03:00:00,
2013-10-05 23:05:00,73.6,64.8,30.00,NNW,334,0.0,0.0,74,0.00,,---,0.00,VWS V14.01,2013-10-06 03:05:00,
2013-10-05 23:11:00,73.5,65.1,30.00,NNW,335,0.0,0.0,75,0.00,,---,0.00,VWS V14.01,2013-10-06 03:11:00,
2013-10-05 23:16:00,73.3,64.9,30.00,NNW,335,0.0,0.0,75,0.00,,---,0.00,VWS V14.01,2013-10-06 03:16:00,
2013-10-05 23:21:00,73.3,64.9,30.00,NNW,334,0.0,0.0,75,0.00,,---,0.00,VWS V14.01,2013-10-06 03:21:00,
2013-10-05 23:26:00,73.2,64.8,30.00,NNW,334,0.0,0.0,75,0.00,,---,0.00,VWS V14.01,2013-10-06 03:26:00,
2013-10-05 23:31:00,73.2,64.8,30.00,NNW,334,0.0,0.0,75,0.00,,---,0.00,VWS V14.01,2013-10-06 03:31:00,
2013-10-05 23:36:00,73.2,64.4,30.00,South,187,0.0,0.0,74,0.00,,---,0.00,VWS V14.01,2013-10-06 03:36:00,
2013-10-05 23:41:00,73.2,64.4,30.00,South,187,0.0,0.0,74,0.00,,---,0.00,VWS V14.01,2013-10-06 03:41:00,
2013-10-05 23:46:00,73.1,64.7,30.00,South,187,0.0,0.0,75,0.00,,---,0.00,VWS V14.01,2013-10-06 03:46:00,
2013-10-05 23:51:00,73.0,64.6,30.00,South,187,0.0,0.0,75,0.00,,---,0.00,VWS V14.01,2013-10-06 03:51:00,
2013-10-05 23:56:00,72.9,64.5,30.00,South,187,0.0,0.0,75,0.00,,---,0.00,VWS V14.01,2013-10-06 03:56:00,